Regional Weather Roundup
Issued by NWS

Home | Current Version | Previous Version | Graphics & Text | Print | Product List | Glossary On
Versions: 1 2 3 4 5 6 7 8 9 10 11 12 13 14 15 16 17 18 19 20 21 22 23 24 25 26 27 28 29 30 31 32 33 34 35 36 37 38 39 40 41 42 43 44 45 46 47 48 49 50
000
ASUS43 KLOT 212310
RWRIL

ILLINOIS REGIONAL WEATHER ROUNDUP
NATIONAL WEATHER SERVICE CHICAGO/ROMEOVILLE IL
500 PM CST SUN DEC 21 2014

NOTE: "FAIR" INDICATES FEW OR NO CLOUDS BELOW 12,000 FEET WITH NO
SIGNIFICANT WEATHER AND/OR OBSTRUCTIONS TO VISIBILITY.

* THESE STATIONS ARE NOT UNDER NWS QUALITY CONTROL. THEY ALSO MAY NOT
  REPORT WEATHER SUCH AS PRECIPITATION OR FOG.

ILZ001-002-007-009-015-016-024-220000-
NORTHWEST ILLINOIS

CITY           SKY/WX    TMP DP  RH WIND       PRES   REMARKS
MOLINE         CLOUDY    38  32  79 SE13      29.97R WCI  30
STERLING*      CLOUDY    36  30  80 SE8       30.01S WCI  29
SAVANNA*       CLOUDY    37  32  81 SE13      29.98S WCI  29
$$

ILZ003-004-008-010-011-017-018-220000-
NORTH CENTRAL ILLINOIS

CITY           SKY/WX    TMP DP  RH WIND       PRES   REMARKS
ROCKFORD       CLOUDY    37  30  75 S16       30.05R WCI  28
FREEPORT*      CLOUDY    35  31  85 SE16      30.01S WCI  25
ROCHELLE*      CLOUDY    35  31  88 S15       30.05R WCI  25
DE KALB*       CLOUDY    33  30  88 S9        30.06R WCI  26
PERU*          CLOUDY    37  32  82 S14       30.05S WCI  28
$$

ILZ005-006-012>014-019>023-220000-
NORTHEAST ILLINOIS

CITY           SKY/WX    TMP DP  RH WIND       PRES   REMARKS
CHICAGO-OHARE  CLOUDY    35  28  75 S16       30.08S WCI  25
CHICAGO-MIDWAY CLOUDY    37  29  72 SE9       30.09S WCI  30
AURORA         CLOUDY    37  30  75 S9        30.07S WCI  30
LANSING*       MOCLDY    35  29  79 S5        30.11S WCI  31
JOLIET*        MOCLDY    36  30  80 S9        30.09S WCI  29
WAUKEGAN       CLOUDY    35  28  75 S8        30.07S WCI  29
DUPAGE AIRPORT CLOUDY    36  29  75 S12       30.06S WCI  28
KANKAKEE*      CLOUDY    36  31  83 SE5       30.10F WCI  32
WHEELING       CLOUDY    36  28  73 S9        30.09F WCI  29
MORRIS*        CLOUDY    37  32  84 S8        30.07S WCI  30
ROMEOVILLE*    MOCLDY    35  30  82 S10       30.08S WCI  27
NORTHERLY ISL    N/A     35  29  79 SE9         N/A  WCI  28
$$

LMZ740>746-220000-
SOUTHERN LAKE MICHIGAN

STATION/POSITION SKY/WX   TEMP    WIND        PRES    VSBY  WAVE
                          AIR SEA DIR/SP/G                  HT/PER
                          (F)     (DEG/KT/KT) (MB)    (MI)  (FT/S)
WAUKEGAN HARBOR            36     160/ 15/ 19   N/A
HARRISON CRIB              36     160/ 17/ 20   N/A
BURNHAM HARBOR             35     160/  7/ 11   N/A
CALUMET HARBOR             36     140/  5/  9 1018.2S
$$

ILZ025>027-034>036-040-047-049-050-058-095>099-220000-
WEST-CENTRAL ILLINOIS

CITY           SKY/WX    TMP DP  RH WIND       PRES   REMARKS
QUINCY         CLOUDY    42  34  73 SE15      29.95F
GALESBURG*     PTCLDY    37  32  85 SE9       29.98S WCI  30
MACOMB*        CLOUDY    38  34  86 SE15G21   30.00S WCI  29
JACKSONVILLE*  MOCLDY    40  33  77 SE8       30.01F
PITTSFIELD*    CLOUDY    41  35  79 SE13      29.99F
$$

ILZ028>032-037-038-041>044-048-051>054-059>061-220000-
CENTRAL ILLINOIS

CITY           SKY/WX    TMP DP  RH WIND       PRES   REMARKS
PONTIAC        CLOUDY    37  32  84 S8        30.09S WCI  30
BLOOMINGTON    CLOUDY    34  32  92 SE7       30.07S WCI  28
DECATUR        CLOUDY    36  29  75 SE8       30.07F WCI  30
PEORIA         MOCLDY    37  30  75 SE10      30.03F WCI  30
LACON*         CLOUDY    36  30  80 S9        30.04S WCI  29
LINCOLN*       CLOUDY    38  33  82 SE8       30.06F WCI  32
SPRINGFIELD    PTCLDY    38  30  73 SE12      30.03F WCI  30
TAYLORVILLE    PTCLDY    36  30  80 SE10      30.04F WCI  28
$$

ILZ033-039-045-046-055>057-062-063-220000-
EAST-CENTRAL ILLINOIS

CITY           SKY/WX    TMP DP  RH WIND       PRES   REMARKS
CHAMPAIGN      MOCLDY    34  28  79 SE8       30.08S WCI  27
DANVILLE*      PTCLDY    34  29  83 SE7       30.07F WCI  28
RANTOUL*       MOCLDY    36  31  83 SE7       30.08S WCI  31
MATTOON        CLEAR     35  28  75 SE8       30.08S WCI  29
PARIS*         CLEAR     34  31  87 SE3       30.11S
$$

ILZ079-100>102-220000-
SOUTHWEST ILLINOIS

CITY           SKY/WX    TMP DP  RH WIND       PRES   REMARKS
ALTON          CLOUDY    41  30  65 SE12      30.03
BELLEVILLE     CLOUDY    42  32  68 E6        30.03F
CAHOKIA*       CLOUDY    43  32  65 SE10      30.03F
SPARTA*        CLOUDY    42  32  68 SE3       30.05F
$$

ILZ064>066-069>071-074>076-080>082-084>086-088>090-092>094-220000-
SOUTH-CENTRAL ILLINOIS

CITY           SKY/WX    TMP DP  RH WIND       PRES   REMARKS
CARBONDALE     CLOUDY    41  30  65 E5        30.06F
CAIRO*         CLEAR     46  34  62 E3        30.05F
EFFINGHAM*     CLEAR     36  27  72 E6        30.10S WCI  31
MARION         PTCLDY    43  30  61 E6        30.07F
MT. VERNON     PTCLDY    39  27  60 E3        30.09S
CENTRALIA*     CLOUDY    40  29  65 SE5       30.07S
SALEM*         CLEAR     42  31  66 SE5       30.08S
METROPOLIS*    CLEAR     43  33  67 CALM      30.06F
$$

ILZ067-068-072-073-078-083-087-091-220000-
SOUTHEAST ILLINOIS

CITY           SKY/WX    TMP DP  RH WIND       PRES   REMARKS
LAWRENCEVILLE  CLEAR     35  29  78 E6        30.11F WCI  30
FLORA*         CLEAR     35  30  82 SE7       30.10S WCI  29
FAIRFIELD*     CLEAR     39  30  68 SE3       30.09R
HARRISBURG*    CLEAR     39  32  74 E5        30.10S
ROBINSON*      CLEAR     34  30  85 E5        30.12S WCI  30
CARMI*         CLEAR     37  31  80 E6        30.10R WCI  32
$$

ABBREVIATIONS USED IN REMARKS
   TC - TEMPERATURE IN CELSIUS
  WCI - WIND CHILL INDEX
   HX - HEAT INDEX
  VSB - VISIBILITY
$$




USA.gov is the U.S. government's official web portal to all federal, state and local government web resources and services.